[[[{"header":{"parameterUnit":"kt","parameterCategory":2,"dx":1,"dy":1,"la1":30.253999710083008,"la2":30.299108505249023,"lo1":-89.0895004272461,"lo2":-89.04439544677734,"nx":28,"ny":28,"refTime":"2022-10-30T21:00:00:Z","depth":0,"parameterNumber":1,"parameterNumberName":"U-component_of_WINDS"},"data":[8.6122,8.6311,8.631,8.6525,8.656,8.6708,8.6761,8.6828,8.6882,8.7059,8.7161,8.718,8.7234,8.7357,8.7468,8.7474,8.7523,8.7591,8.7587,8.728,8.7238,8.7198,8.7152,8.7601,8.7601,8.7905,8.7908,8.791,8.59,8.5937,8.6049,8.6158,8.6255,8.6189,8.627,8.6356,8.649,8.6558,8.6657,8.6814,8.6937,8.6969,8.7088,8.7178,8.7155,8.7211,8.7205,8.7215,8.6887,8.6839,8.7228,8.7228,8.7228,8.7228,8.7228,8.7228,8.5496,8.5609,8.5672,8.5795,8.5849,8.5922,8.603,8.6049,8.616,8.6282,8.6258,8.6411,8.6479,8.6621,8.6669,8.6789,8.6726,8.6788,8.6804,8.682,8.6839,8.6405,8.6808,8.6807,8.6806,8.6805,8.6804,0,8.5199,8.519,8.5297,8.5405,8.5494,8.5577,8.5653,8.572,8.5699,8.5792,8.5927,8.6004,8.6158,8.6286,8.6397,8.6433,8.6376,8.6369,8.6412,8.6427,8.6426,8.6431,8.5898,8.6357,8.6354,8.6351,8.6349,8.6347,8.4793,8.4924,8.4989,8.5065,8.5105,8.5228,8.5301,8.5272,8.5352,8.5442,8.5544,8.567,8.577,8.5987,8.6009,8.6125,8.6098,8.6274,8.6115,8.6124,8.6104,8.6098,8.6112,8.6306,8.6312,8.6316,8.6319,0,8.4566,8.456,8.4762,8.4812,8.4829,8.4969,8.5013,8.5125,8.513,8.5285,8.532,8.533,8.5463,8.5456,8.5607,8.5599,8.5834,8.5804,8.5811,8.5805,8.5964,8.595,8.6474,8.6543,8.6075,8.6079,8.6083,0,8.4218,8.4391,8.4372,8.449,8.4681,8.4646,8.4838,8.4861,8.4916,8.5038,8.4969,8.5085,8.5057,8.5173,8.5162,8.5352,8.538,8.5386,8.5382,8.5394,8.5394,8.5438,8.5418,8.5363,8.5361,8.5358,8.5356,0,8.3864,8.4055,8.4245,8.4288,8.4358,8.4449,8.4483,8.4544,8.4616,8.4708,8.4755,8.4865,8.4927,8.5014,8.4999,8.4892,8.523,8.508,8.5237,8.5238,8.5314,8.531,8.5774,8.5353,8.5352,8.5351,8.535,0,8.3582,8.3673,8.3949,8.4006,8.4058,8.4183,8.4288,8.4393,8.4463,8.4463,8.4535,8.4488,8.4651,8.4503,8.4728,8.4593,8.4658,8.4678,8.4689,8.4705,8.454,8.4806,8.5246,8.5293,8.4718,8.4713,8.4708,0,8.318,8.3455,8.3426,8.3689,8.3814,8.3727,8.3866,8.3928,8.394,8.4049,8.4062,8.4188,8.4076,8.4114,8.4226,8.4246,8.4421,8.4221,8.4386,8.4392,8.4372,8.4776,8.4844,8.515,8.464,8.4647,8.4652,0,8.2867,8.2949,8.2997,8.3045,8.312,8.3224,8.3383,8.3499,8.3574,8.3651,8.3785,8.396,8.3883,8.3947,8.392,8.4038,8.4301,8.394,8.3941,8.4007,8.4604,8.4669,8.472,8.4258,8.4266,8.4273,8.4599,0,8.2449,8.2584,8.2714,8.2818,8.2897,8.3059,8.3048,8.3132,8.3097,8.3104,8.3301,8.335,8.3469,8.3524,8.3491,8.3761,8.3715,8.3631,8.3488,8.3752,8.386,8.3904,8.3329,8.3324,8.3321,8.3318,0,0,8.2067,8.2259,8.222,8.2371,8.2436,8.234,8.2516,8.2568,8.2675,8.2722,8.2641,8.2897,8.2941,8.3181,8.3262,8.3309,8.3358,8.3265,8.3626,8.366,8.3692,8.3807,8.3853,8.3311,8.331,8.3309,8.3307,0,8.1911,8.1953,8.2124,8.2175,8.2249,8.2247,8.2288,8.2345,8.2358,8.2548,8.2469,8.2585,8.2789,8.2847,8.2903,8.3235,8.3171,8.3272,8.3456,8.359,8.3629,8.3663,8.3785,8.3828,8.3299,8.3299,8.33,0,8.1603,8.1643,8.1723,8.1861,8.1908,8.2039,8.1885,8.2029,8.2127,8.2017,8.2207,8.2234,8.2309,8.2536,8.2637,8.2567,8.3001,8.2861,8.2884,8.2895,8.3025,8.3072,8.3114,8.2562,8.2559,8.2557,0,0,8.147,8.1593,8.1627,8.1826,8.1862,8.1861,8.1928,8.19,8.1967,8.1995,8.2026,8.2097,8.2215,8.2294,8.2404,8.2654,8.2668,8.2771,8.2805,8.2834,8.2861,8.2998,8.3045,8.2547,8.2547,8.2547,0,0,8.1407,8.1452,8.1403,8.1633,8.1699,8.1746,8.187,8.1812,8.1909,8.1889,8.1849,8.1866,8.2077,8.2106,8.198,8.2353,8.2211,8.2241,8.2327,8.237,8.2405,8.2394,8.183,0,0,0,0,0,8.124,8.1446,8.1401,8.1438,8.1612,8.177,8.1793,8.1763,8.1663,8.1762,8.1779,8.1704,8.203,8.1917,8.1955,8.2097,8.2424,8.2446,8.2467,8.2635,8.2681,8.272,0,0,0,0,0,0,8.1254,8.1299,8.1396,8.1452,8.149,8.1762,8.1587,8.1584,8.1651,8.1634,8.1703,8.1706,8.1685,8.1896,8.193,8.2066,8.1818,8.2433,8.2451,8.2468,8.2651,8.2689,8.2721,0,0,0,0,0,8.1265,8.1301,8.1587,8.1449,8.1482,8.1492,8.1579,8.1575,8.1627,8.1654,8.1654,8.1598,8.169,8.1717,8.1916,8.2051,8.1794,8.1807,8.2445,8.2459,8.2472,8.2669,0,0,0,0,0,0,8.1273,8.13,8.1593,8.1602,8.1368,8.1476,8.1492,8.1568,8.1641,8.1644,8.1546,8.1532,8.1696,8.1715,8.1737,8.2047,8.1774,8.1788,8.1796,8.2456,8.2467,8.2477,0,0,0,0,0,0,8.128,8.1309,8.1598,8.1497,8.1495,8.1462,8.1476,8.164,8.1644,8.1529,8.1519,8.1539,8.1664,8.1716,8.1732,8.199,8.1759,8.1772,8.1781,8.1786,8.2465,8.2474,0,0,0,0,0,0,8.1292,8.1316,8.1494,8.1493,8.149,8.1592,8.1607,8.1787,8.1555,8.1528,8.1533,8.1524,8.1667,8.1682,8.1729,8.1981,8.1988,8.1759,8.1768,8.1774,8.1778,0,0,0,0,0,0,0,8.1301,8.1146,8.1538,8.1489,8.1486,8.1688,8.169,8.1693,8.1553,8.1544,8.1536,8.1528,8.1686,8.17,8.1714,8.1974,0,0,8.1758,8.1764,0,0,0,0,0,0,0,0,8.1136,8.1144,8.1538,8.154,8.1542,8.1688,8.169,8.1692,8.1551,8.1544,8.1538,8.1531,8.169,8.1701,8.1713,0,0,0,0,0,0,0,0,0,0,0,0,0,0,0,8.1538,8.154,0,8.1689,8.169,8.1692,8.155,8.1545,8.1539,8.1534,8.1693,8.1703,8.1712,0,0,0,0,0,0,0,0,0,0,0,0,0,0,0,0,0,0,0,0,0,0,0,0,0,0,0,0,0,0,0,0,0,0,0,0,0,0,0,0,0,0,0,0,0,0,0,0,0,0,0,0,0,0,0,0,0,0,0,0,0,0,0,0,0,0,0,0,0]}],[{"header":{"parameterUnit":"kt","parameterCategory":2,"dx":1,"dy":1,"la1":30.253999710083008,"la2":30.299108505249023,"lo1":-89.0895004272461,"lo2":-89.04439544677734,"nx":28,"ny":28,"refTime":"2022-10-30T21:00:00:Z","depth":0,"parameterNumber":2,"parameterNumberName":"V-component_of_WINDS"},"data":[4.3875,4.3838,4.3838,4.3795,4.3787,4.3756,4.3744,4.3728,4.3715,4.3674,4.3649,4.3643,4.3626,4.3594,4.3564,4.3561,4.3546,4.3532,4.353,4.3602,4.3611,4.362,4.3629,4.353,4.353,4.3455,4.3454,4.3453,4.3917,4.391,4.389,4.3869,4.3849,4.3863,4.3846,4.3827,4.3798,4.3782,4.376,4.3723,4.3693,4.3682,4.3651,4.3628,4.3631,4.362,4.3619,4.3615,4.3693,4.3703,4.3617,4.3617,4.3617,4.3617,4.3617,4.3617,4.3994,4.3974,4.3963,4.394,4.393,4.3916,4.3894,4.389,4.3867,4.3841,4.3845,4.3811,4.3794,4.3759,4.3746,4.3716,4.3729,4.3715,4.3711,4.3706,4.3699,4.3798,4.3712,4.3712,4.3712,4.3712,4.3713,0,4.4051,4.4053,4.4035,4.4016,4.3999,4.3984,4.3971,4.3957,4.3962,4.3943,4.3915,4.3898,4.3863,4.3833,4.3806,4.3797,4.3806,4.3809,4.3798,4.3793,4.379,4.3786,4.3907,4.3811,4.3812,4.3813,4.3813,4.3814,4.4125,4.4103,4.4094,4.4081,4.4075,4.4053,4.404,4.4047,4.4032,4.4014,4.3994,4.3967,4.3945,4.3897,4.3891,4.3864,4.3868,4.383,4.3864,4.3859,4.3861,4.386,4.3855,4.3823,4.3821,4.382,4.382,0,4.4165,4.417,4.4137,4.4132,4.4129,4.4104,4.4097,4.4076,4.4076,4.4046,4.4039,4.4038,4.4009,4.401,4.3978,4.3978,4.3925,4.3933,4.3929,4.3929,4.3892,4.3893,4.3782,4.3764,4.3873,4.3872,4.3871,0,4.4228,4.42,4.4209,4.419,4.4156,4.4166,4.4132,4.4129,4.4119,4.4096,4.4111,4.4088,4.4094,4.4069,4.407,4.4029,4.4025,4.402,4.402,4.4017,4.4017,4.4006,4.4009,4.4028,4.4029,4.4029,4.403,0,4.4289,4.4263,4.4233,4.4227,4.422,4.4204,4.42,4.419,4.4178,4.4162,4.4152,4.4132,4.412,4.4102,4.4104,4.4126,4.4055,4.4086,4.4051,4.405,4.4034,4.4034,4.3937,4.4031,4.4031,4.4031,4.4031,0,4.4341,4.433,4.4287,4.428,4.4273,4.4253,4.4235,4.4219,4.4208,4.4209,4.4196,4.4207,4.4176,4.4205,4.416,4.4188,4.4173,4.4168,4.4166,4.4161,4.4193,4.4133,4.4044,4.4032,4.4157,4.4158,4.4159,0,4.4405,4.4366,4.4377,4.4335,4.4317,4.4336,4.4313,4.4305,4.4305,4.4287,4.4286,4.4265,4.4289,4.4282,4.426,4.4257,4.4221,4.4263,4.4227,4.4225,4.4225,4.4145,4.413,4.4064,4.4173,4.4171,4.417,0,4.4457,4.4454,4.4447,4.444,4.4436,4.4422,4.4397,4.4381,4.4368,4.436,4.4336,4.431,4.4324,4.4315,4.4323,4.4299,4.4245,4.4318,4.4318,4.4301,4.4182,4.4167,4.4156,4.4254,4.4253,4.4251,4.4181,0,4.4526,4.451,4.4492,4.4483,4.4474,4.4451,4.4459,4.4447,4.4455,4.4457,4.4425,4.4422,4.4404,4.4396,4.4405,4.4354,4.4362,4.4379,4.4406,4.4356,4.4332,4.4323,4.444,4.4441,4.4442,4.4442,0,0,4.4584,4.4563,4.4578,4.4558,4.4551,4.4574,4.4547,4.4543,4.4534,4.4526,4.4543,4.4505,4.4502,4.4462,4.4447,4.4442,4.4431,4.4451,4.4381,4.4374,4.4368,4.4342,4.4333,4.4444,4.4444,4.4444,4.4444,0,4.4612,4.4615,4.4592,4.4589,4.4585,4.4591,4.4585,4.4585,4.4586,4.4558,4.4575,4.4557,4.4531,4.4522,4.4515,4.4456,4.4468,4.4451,4.4415,4.4388,4.438,4.4373,4.4347,4.4338,4.4446,4.4446,4.4446,0,4.4661,4.4664,4.4655,4.4646,4.4644,4.4627,4.4658,4.464,4.4626,4.4652,4.4624,4.4623,4.4615,4.458,4.4564,4.4578,4.4501,4.453,4.4525,4.4523,4.4496,4.4487,4.4479,4.4588,4.4588,4.4589,0,0,4.4683,4.4671,4.4677,4.4653,4.465,4.4659,4.4652,4.4661,4.4657,4.4655,4.4655,4.4648,4.4631,4.462,4.4606,4.4567,4.4563,4.4547,4.454,4.4534,4.4529,4.4501,4.4492,4.459,4.459,4.4591,0,0,4.4694,4.4701,4.4713,4.4686,4.4682,4.4685,4.4668,4.4681,4.4671,4.4674,4.4688,4.4687,4.4654,4.4653,4.4675,4.4615,4.4642,4.4637,4.4617,4.4609,4.4602,4.4602,4.4706,0,0,0,0,0,4.4728,4.47,4.4711,4.4708,4.4697,4.468,4.4678,4.469,4.4708,4.4693,4.4695,4.4712,4.4667,4.4687,4.4682,4.4657,4.4613,4.4609,4.4605,4.457,4.4561,4.4554,0,0,0,0,0,0,4.4727,4.4723,4.4711,4.4714,4.4712,4.4681,4.4714,4.4716,4.471,4.4713,4.4711,4.4712,4.472,4.469,4.4686,4.4661,4.4707,4.4611,4.4608,4.4605,4.4567,4.456,4.4554,0,0,0,0,0,4.4726,4.4723,4.4704,4.4714,4.4712,4.4722,4.4715,4.4717,4.4712,4.4717,4.4718,4.4722,4.4719,4.4716,4.4688,4.4663,4.471,4.4709,4.4609,4.4607,4.4604,4.4563,0,0,0,0,0,0,4.4725,4.4724,4.4704,4.4703,4.4727,4.4723,4.4724,4.4718,4.4716,4.4718,4.4729,4.4732,4.4718,4.4716,4.4714,4.4663,4.4713,4.4711,4.471,4.4607,4.4605,4.4603,0,0,0,0,0,0,4.4726,4.4724,4.4703,4.4719,4.472,4.4725,4.4725,4.4704,4.4716,4.4729,4.4731,4.473,4.4721,4.4716,4.4714,4.468,4.4715,4.4713,4.4712,4.4711,4.4605,4.4604,0,0,0,0,0,0,4.4725,4.4723,4.4719,4.472,4.4722,4.4719,4.4706,4.4693,4.4732,4.4728,4.4735,4.4737,4.472,4.4719,4.4714,4.468,4.468,4.4715,4.4714,4.4713,4.4712,0,0,0,0,0,0,0,4.4725,4.4734,4.4706,4.4721,4.4723,4.47,4.47,4.47,4.4732,4.4733,4.4735,4.4736,4.4724,4.4722,4.472,4.4681,0,0,4.4715,4.4714,0,0,0,0,0,0,0,0,4.4734,4.4734,4.4706,4.4706,4.4706,4.47,4.47,4.47,4.4732,4.4733,4.4734,4.4736,4.4723,4.4722,4.472,0,0,0,0,0,0,0,0,0,0,0,0,0,0,0,4.4706,4.4706,0,4.47,4.47,4.47,4.4732,4.4733,4.4734,4.4735,4.4723,4.4722,4.4721,0,0,0,0,0,0,0,0,0,0,0,0,0,0,0,0,0,0,0,0,0,0,0,0,0,0,0,0,0,0,0,0,0,0,0,0,0,0,0,0,0,0,0,0,0,0,0,0,0,0,0,0,0,0,0,0,0,0,0,0,0,0,0,0,0,0,0,0,0]}]]]